Home > Time Zones > World Clock > Weather > Norway > Gran > Past weeks

Flag for Norway Weather past 2 weeks in Gran, Norway

Now
54 °F

Scattered clouds.


Feels Like: 52 °F
Forecast: 38 / 44 °F
Wind: 6 mph from Northeast

Location: Oslo Gardermoen Airport

Current Time: May 27, 2015 at 11:04:46 AM

Latest Report: May 27, 2015 at 10:20 AM


Visibility: N/A

Pressure: 29.83 "Hg

Humidity: 47%

Dew point: 34 °F

Location of GranLocation

Historic Weather in Gran — Graph

°F

Gran temperature yesterday

Maximum temperature yesterday: 55 °F (at 5:20 PM)
Minimum temperature yesterday: 43 °F (at 12:50 AM)
Average temperature yesterday: 48 °F

Past Weeks' High & Low Weather Summary

 TemperatureHumidityPressure
High61 °F (May 23, 4:20 PM)100% (May 18, 1:50 AM)30.01 "Hg (May 18, 1:50 AM)
Low32 °F (May 21, 4:50 AM)25% (May 23, 6:50 PM)29.45 "Hg (May 19, 1:20 PM)
Average47 °F68%29.76 "Hg
* Reported May 12 9:20 AM — May 27 9:50 AM, Gran, Weather by CustomWeather, © 2015

Note: Actual official high and low records may vary slightly from our data, if they occured in-between our weather recording intervals... More about our weather records

Advertising

Gran weather history for previous 24 hours

 ConditionsComfort  
Time TempWeatherWind HumidityBarometerVisibility
9:50 AM
Wed, May 27
54 °FPassing clouds.2 mph51%29.83 "HgN/A
9:20 AM50 °FPassing clouds.5 mph54%29.83 "HgN/A
8:50 AM50 °FPassing clouds.5 mph54%29.83 "HgN/A
8:20 AM48 °FSunny.3 mph54%29.83 "Hg10 mi
7:50 AM48 °FPassing clouds.5 mph58%29.80 "HgN/A
7:20 AM48 °FPassing clouds.7 mph58%29.80 "HgN/A
6:50 AM48 °FPassing clouds.3 mph62%29.80 "HgN/A
5:50 AM45 °FSunny.1 mph66%29.80 "Hg10 mi
5:20 AM43 °FPassing clouds.3 mph71%29.80 "HgN/A
4:50 AM41 °FClear.5 mph81%29.80 "Hg10 mi
4:20 AM41 °FPassing clouds.3 mph81%29.80 "HgN/A
3:50 AM43 °FClear.3 mph76%29.80 "Hg10 mi
3:20 AM45 °FClear.2 mph71%29.77 "Hg10 mi
2:50 AM46 °FClear.No wind71%29.80 "Hg10 mi
2:20 AM46 °FClear.1 mph71%29.77 "Hg10 mi
1:50 AM46 °FClear.1 mph71%29.77 "Hg10 mi
1:20 AM46 °FPassing clouds.3 mph71%29.77 "HgN/A
12:50 AM46 °FPassing clouds.3 mph71%29.77 "HgN/A
12:20 AM48 °FClear.2 mph71%29.77 "Hg10 mi
11:50 PM
Tue, May 26
48 °FClear.3 mph71%29.77 "Hg10 mi
11:20 PM50 °FPassing clouds.3 mph67%29.77 "HgN/A
10:50 PM50 °FSunny.2 mph62%29.77 "Hg10 mi
10:20 PM52 °FSunny.1 mph54%29.77 "Hg10 mi
9:50 PM52 °FSunny.No wind50%29.77 "Hg10 mi
9:20 PM52 °FSunny.No wind50%29.77 "Hg10 mi
8:50 PM54 °FSunny.1 mph51%29.77 "Hg10 mi
8:20 PM54 °FPassing clouds.3 mph51%29.77 "HgN/A
7:50 PM54 °FPassing clouds.6 mph51%29.77 "HgN/A
7:20 PM54 °FPartly sunny.9 mph51%29.74 "HgN/A
6:50 PM55 °FPartly sunny.8 mph51%29.74 "HgN/A
6:20 PM54 °FPassing clouds.6 mph51%29.74 "HgN/A
5:50 PM54 °FScattered showers. Clear.8 mph51%29.74 "HgN/A
5:20 PM55 °FScattered showers. Partly sunny.8 mph47%29.74 "HgN/A
4:50 PM54 °FScattered showers. Broken clouds.9 mph54%29.74 "HgN/A
4:20 PM54 °FScattered showers. Broken clouds.3 mph54%29.74 "HgN/A
3:50 PM50 °FScattered showers. Broken clouds.6 mph67%29.74 "HgN/A
3:20 PM54 °FScattered showers. Partly sunny.9 mph54%29.74 "HgN/A
2:50 PM54 °FPartly sunny.13 mph58%29.74 "HgN/A
2:20 PM52 °FPartly sunny.13 mph62%29.74 "HgN/A
1:50 PM50 °FBroken clouds.12 mph67%29.74 "HgN/A
1:20 PM50 °FPartly sunny.13 mph67%29.77 "HgN/A
12:50 PM48 °FBroken clouds.13 mph76%29.77 "HgN/A
12:20 PM48 °FScattered showers. Broken clouds.10 mph71%29.77 "HgN/A
11:50 AM48 °FSprinkles. Broken clouds.9 mph76%29.77 "HgN/A
11:20 AM48 °FBroken clouds.12 mph76%29.74 "HgN/A
Weather by CustomWeather, © 2015

See weather overviewHow to use our weather pages